Location: Newark
(52.2583°N, 7.1190°W)
Time: 14:49:50
(UTC+00:00)

SR - All Passes

Search period start: 21 November 2019 00:00
Search period end: 01 December 2019 00:00
Orbit: 573 x 882 km, 66.7° (Epoch: 21 November)

Date Brightness Start Highest point End Pass type
(mag) Time Alt. Az. Time Alt. Az. Time Alt. Az.
21 Nov - 01:00:31 10° WNW 01:04:04 17° WSW 01:07:34 10° SW night (unlit)
21 Nov - 13:53:01 10° SSE 13:57:23 25° ESE 14:02:00 10° NE daylight
21 Nov - 15:33:29 10° SW 15:38:57 76° NW 15:44:52 10° NE daylight
21 Nov - 17:17:11 10° W 17:22:02 28° NNW 17:27:04 10° NNE visible
21 Nov - 19:01:52 10° NW 19:06:04 20° N 19:10:19 10° NE visible
21 Nov - 20:45:02 10° NNW 20:50:05 28° NNE 20:55:08 10° E visible
21 Nov - 22:27:12 10° NW 22:33:11 74° NE 22:39:01 10° SE visible
22 Nov - 00:09:56 10° NW 00:14:53 28° WSW 00:19:43 10° SSW night (unlit)
22 Nov - 13:05:25 10° SE 13:08:15 14° ESE 13:11:11 10° ENE daylight
22 Nov - 14:43:53 10° SSW 14:49:17 69° ESE 14:55:06 10° NE daylight
22 Nov - 16:26:42 10° W 16:31:53 37° NNW 16:37:20 10° NNE daylight
22 Nov - 18:11:23 10° NW 18:15:39 21° N 18:20:02 10° NE visible
22 Nov - 19:55:10 10° NW 19:59:49 23° NNE 20:04:28 10° ENE visible
22 Nov - 21:37:31 10° NW 21:43:19 49° NE 21:49:00 10° ESE visible
22 Nov - 23:19:51 10° NW 23:25:31 47° WSW 23:31:01 10° S visible
23 Nov - 13:54:45 10° S 13:59:48 41° ESE 14:05:12 10° NE daylight
23 Nov - 15:36:27 10° WSW 15:41:52 52° NW 15:47:38 10° NE daylight
23 Nov - 17:20:46 10° WNW 17:25:20 23° NNW 17:30:00 10° NE visible
23 Nov - 19:05:08 10° NW 19:09:28 20° N 19:13:50 10° NE visible
23 Nov - 20:47:50 10° NNW 20:53:17 36° NNE 20:58:40 10° E visible
23 Nov - 22:30:01 10° NW 22:35:59 76° SW 22:41:45 10° SSE visible
24 Nov - 00:13:29 10° WNW 00:17:12 17° WSW 00:20:50 10° SW night (unlit)
24 Nov - 13:06:12 10° SSE 13:10:29 24° ESE 13:15:02 10° ENE daylight
24 Nov - 14:46:31 10° SW 14:52:02 79° NW 14:57:56 10° NE daylight
24 Nov - 16:30:10 10° W 16:35:04 29° NNW 16:40:09 10° NNE daylight
24 Nov - 18:14:51 10° NW 18:19:04 20° N 18:23:20 10° NE visible
24 Nov - 19:58:06 10° NNW 20:03:07 27° NNE 20:08:08 10° E visible
24 Nov - 21:40:17 10° NW 21:46:15 71° NE 21:52:04 10° SE visible
24 Nov - 23:22:57 10° NW 23:28:00 30° WSW 23:32:53 10° S night (unlit)
25 Nov - 12:18:43 10° SE 12:21:22 14° ESE 12:24:07 10° ENE daylight
25 Nov - 13:56:57 10° SSW 14:02:22 66° ESE 14:08:10 10° NE daylight
25 Nov - 15:39:42 10° WSW 15:44:55 38° NW 15:50:25 10° NNE daylight
25 Nov - 17:24:22 10° WNW 17:28:41 21° N 17:33:05 10° NE visible
25 Nov - 19:08:13 10° NW 19:12:50 23° NNE 19:17:28 10° ENE visible
25 Nov - 20:50:36 10° NW 20:56:22 48° NE 21:02:01 10° ESE visible
25 Nov - 22:32:55 10° NW 22:38:37 49° WSW 22:44:08 10° SSE visible
26 Nov - 13:07:51 10° S 13:12:53 39° ESE 13:18:16 10° NE daylight
26 Nov - 14:49:28 10° WSW 14:54:55 54° NW 15:00:44 10° NE daylight
26 Nov - 16:33:44 10° WNW 16:38:20 24° NNW 16:43:04 10° NE daylight
26 Nov - 18:18:10 10° NW 18:22:29 20° N 18:26:50 10° NE visible
26 Nov - 20:00:54 10° NNW 20:06:19 35° NNE 20:11:40 10° E visible
26 Nov - 21:43:05 10° NW 21:49:04 79° SW 21:54:50 10° SSE visible
26 Nov - 23:26:28 10° WNW 23:30:19 18° WSW 23:34:06 10° SSW night (unlit)
27 Nov - 12:19:22 10° SSE 12:23:36 23° ESE 12:28:03 10° ENE daylight
27 Nov - 13:59:33 10° SW 14:05:06 82° NW 14:11:01 10° NE daylight
27 Nov - 15:43:08 10° W 15:48:05 29° NNW 15:53:14 10° NNE daylight
27 Nov - 17:27:52 10° NW 17:32:05 20° N 17:36:21 10° NE visible
27 Nov - 19:11:09 10° NNW 19:16:09 27° NNE 19:21:07 10° E visible
27 Nov - 20:53:21 10° NW 20:59:20 68° NE 21:05:06 10° SE visible
27 Nov - 22:35:59 10° NW 22:41:06 31° WSW 22:46:03 10° S visible
28 Nov - 11:32:03 10° SE 11:34:30 13° ESE 11:37:00 10° ENE daylight
28 Nov - 13:10:02 10° SSW 13:15:27 63° ESE 13:21:15 10° NE daylight
28 Nov - 14:52:40 10° WSW 14:57:58 39° NW 15:03:29 10° NNE daylight
28 Nov - 16:37:20 10° WNW 16:41:41 21° N 16:46:07 10° NE daylight
28 Nov - 18:21:16 10° NW 18:25:51 22° NNE 18:30:26 10° ENE visible
28 Nov - 20:03:40 10° NW 20:09:26 46° NE 20:15:02 10° ESE visible
28 Nov - 21:45:57 10° NW 21:51:43 51° WSW 21:57:14 10° SSE visible
28 Nov - 23:31:51 10° W 23:32:30 10° W 23:33:08 10° WSW night (unlit)
29 Nov - 12:20:59 10° S 12:25:59 38° ESE 12:31:19 10° NE daylight
29 Nov - 14:02:29 10° WSW 14:07:58 56° NW 14:13:48 10° NE daylight
29 Nov - 15:46:43 10° WNW 15:51:21 24° NNW 15:56:08 10° NE daylight
29 Nov - 17:31:11 10° NW 17:35:29 20° N 17:39:49 10° NE visible
29 Nov - 19:13:58 10° NNW 19:19:22 34° NNE 19:24:40 10° E visible
29 Nov - 20:56:08 10° NW 21:02:08 82° SW 21:07:54 10° SSE visible
29 Nov - 22:39:27 10° WNW 22:43:26 19° WSW 22:47:20 10° SSW visible
30 Nov - 11:32:33 10° SSE 11:36:43 22° ESE 11:41:05 10° ENE daylight
30 Nov - 13:12:36 10° SW 13:18:10 85° NW 13:24:06 10° NE daylight
30 Nov - 14:56:07 10° W 15:01:06 30° NNW 15:06:18 10° NNE daylight
30 Nov - 16:40:51 10° NW 16:45:06 20° N 16:49:22 10° NE daylight
30 Nov - 18:24:12 10° NNW 18:29:11 26° NNE 18:34:05 10° E visible
30 Nov - 20:06:25 10° NW 20:12:24 66° NE 20:18:09 10° SE visible
30 Nov - 21:49:01 10° NW 21:54:13 32° WSW 21:59:13 10° S visible
